Total_Precipitation_Accumulation
0.09 0.17 0.20 0.21 0.20 0.18 0.13 0.12 0.17 0.22 0.35 0.50 0.60 0.73 0.67 0.65 0.71 0.73 0.60 0.53 0.43 0.39 0.49 0.61 0.68 0.69 0.74 0.82 0.90 1.03 1.04 1.01 1.01 1.03 1.05 1.08 1.12 1.12 1.14 1.20 1.23 1.39 1.43 1.52
0.11 0.14 0.14 0.16 0.18 0.15 0.11 0.09 0.10 0.18 0.36 0.52 0.66 0.68 0.64 0.55 0.53 0.68 0.62 0.53 0.51 0.48 0.56 0.61 0.62 0.62 0.61 0.64 0.76 0.94 1.00 1.06 1.09 1.09 1.03 1.06 1.08 1.06 1.08 1.17 1.29 1.42 1.46 1.57
0.21 0.17 0.18 0.25 0.20 0.17 0.14 0.12 0.13 0.23 0.37 0.53 0.67 0.60 0.63 0.59 0.50 0.51 0.50 0.48 0.54 0.57 0.61 0.60 0.59 0.56 0.55 0.56 0.68 0.96 1.05 1.03 1.12 1.20 1.12 1.18 1.21 1.19 1.21 1.27 1.37 1.44 1.56 1.60
0.28 0.31 0.38 0.29 0.23 0.22 0.24 0.25 0.23 0.27 0.38 0.60 0.77 0.67 0.60 0.59 0.57 0.53 0.43 0.45 0.53 0.54 0.55 0.57 0.57 0.56 0.54 0.56 0.64 0.87 1.04 1.08 1.26 1.40 1.31 1.31 1.33 1.34 1.40 1.46 1.50 1.60 1.65 1.58
0.42 0.44 0.46 0.38 0.34 0.36 0.44 0.54 0.45 0.46 0.59 0.64 0.63 0.63 0.63 0.56 0.51 0.50 0.50 0.54 0.54 0.57 0.58 0.64 0.68 0.66 0.64 0.74 0.86 0.98 1.11 1.22 1.42 1.57 1.62 1.59 1.55 1.64 1.68 1.71 1.75 1.83 1.89 1.87
0.57 0.64 0.73 0.66 0.53 0.48 0.61 0.96 0.79 0.64 0.66 0.68 0.68 0.84 0.81 0.57 0.51 0.51 0.54 0.60 0.64 0.71 0.71 0.71 0.78 0.78 0.80 0.90 1.08 1.21 1.25 1.28 1.40 1.56 1.64 1.66 1.67 1.82 1.97 2.00 2.00 2.04 1.94 1.82
0.64 0.74 0.74 0.66 0.59 0.62 1.08 1.42 1.01 0.86 0.88 0.92 0.91 0.87 0.73 0.62 0.65 0.59 0.53 0.56 0.59 0.63 0.70 0.74 0.80 0.87 0.98 1.06 1.17 1.20 1.21 1.23 1.32 1.53 1.78 1.81 1.87 1.95 2.06 2.13 2.18 2.20 2.10 1.99
0.75 0.98 1.08 0.71 0.63 0.97 1.30 1.21 1.23 1.19 1.17 1.11 0.97 0.78 0.66 0.62 0.67 0.61 0.58 0.61 0.62 0.61 0.68 0.75 0.87 1.02 1.10 1.13 1.16 1.22 1.24 1.27 1.37 1.61 1.71 1.80 1.96 2.01 2.16 2.28 2.29 2.26 2.25 2.12
0.98 1.18 1.09 0.85 0.92 0.96 1.01 1.14 1.20 1.14 1.14 1.11 1.05 0.91 0.78 0.72 0.69 0.67 0.67 0.68 0.73 0.72 0.74 0.80 0.92 1.12 1.24 1.24 1.24 1.23 1.21 1.24 1.33 1.46 1.55 1.68 1.76 1.74 1.83 1.97 1.99 2.02 2.05 2.01
1.36 1.36 1.18 1.00 0.92 0.92 0.88 0.95 0.96 0.93 0.89 0.86 0.87 0.83 0.76 0.72 0.75 0.78 0.82 0.78 0.79 0.79 0.81 0.84 0.90 1.07 1.20 1.19 1.20 1.21 1.16 1.13 1.22 1.38 1.45 1.53 1.64 1.65 1.74 1.81 1.87 1.94 1.96 1.92
1.67 1.64 1.42 1.30 1.13 1.10 0.97 0.93 0.91 0.87 0.83 0.76 0.67 0.66 0.65 0.60 0.57 0.61 0.67 0.70 0.70 0.71 0.76 0.78 0.83 1.00 1.15 1.16 1.18 1.22 1.18 1.13 1.21 1.32 1.41 1.47 1.58 1.66 1.68 1.71 1.69 1.72 1.75 1.72
1.74 1.59 1.48 1.48 1.20 1.16 1.21 1.06 0.90 0.87 0.80 0.73 0.64 0.58 0.57 0.56 0.53 0.53 0.59 0.66 0.69 0.72 0.71 0.68 0.73 0.87 0.97 1.14 1.28 1.34 1.25 1.16 1.14 1.15 1.24 1.31 1.39 1.38 1.31 1.28 1.26 1.24 1.28 1.21
1.15 1.23 1.32 1.44 1.29 1.14 1.14 1.07 0.98 0.92 0.85 0.76 0.67 0.57 0.47 0.44 0.45 0.50 0.60 0.70 0.75 0.79 0.76 0.74 0.77 0.85 0.93 1.09 1.32 1.47 1.43 1.27 1.14 1.09 1.10 1.15 1.25 1.33 1.35 1.24 1.14 1.07 1.04 0.94
1.15 1.26 1.35 1.31 1.31 1.27 1.12 1.05 0.98 0.93 0.84 0.75 0.68 0.59 0.48 0.44 0.45 0.52 0.67 0.78 0.79 0.80 0.81 0.81 0.84 0.89 0.98 1.13 1.29 1.38 1.37 1.27 1.12 1.05 1.03 1.02 1.07 1.17 1.24 1.30 1.27 1.10 0.95 0.84
1.27 1.24 1.24 1.20 1.18 1.25 1.21 1.14 1.01 0.92 0.81 0.77 0.71 0.65 0.57 0.53 0.54 0.60 0.68 0.84 0.98 0.99 0.91 0.86 0.90 0.93 0.97 1.09 1.20 1.25 1.23 1.14 1.04 1.01 1.02 0.95 0.89 0.96 1.03 1.10 1.20 1.16 0.98 0.89
1.18 1.11 1.09 1.13 1.17 1.16 1.10 1.11 1.03 0.94 0.77 0.72 0.71 0.68 0.63 0.59 0.61 0.65 0.74 0.92 1.18 1.30 1.17 1.03 0.97 0.94 0.95 1.06 1.12 1.06 1.00 0.91 0.88 0.91 0.90 0.87 0.86 0.90 0.99 1.08 1.15 1.13 1.01 0.88
1.03 0.97 0.96 1.00 1.02 1.06 1.01 0.94 0.89 0.81 0.73 0.69 0.67 0.65 0.64 0.65 0.72 0.84 0.93 1.03 1.11 1.14 1.13 1.08 0.96 0.89 0.94 1.03 1.07 0.98 0.84 0.73 0.64 0.67 0.76 0.80 0.85 0.92 1.03 1.11 1.13 1.04 0.89 0.74
0.78 0.78 0.81 0.83 0.81 0.88 0.90 0.80 0.73 0.69 0.66 0.66 0.66 0.65 0.67 0.75 0.93 1.12 1.14 1.11 1.08 0.97 0.88 0.88 0.85 0.83 0.91 0.96 1.02 0.99 0.83 0.69 0.57 0.57 0.63 0.67 0.78 0.90 0.99 0.99 0.94 0.88 0.80 0.69
0.60 0.64 0.67 0.69 0.70 0.68 0.69 0.69 0.70 0.68 0.60 0.59 0.64 0.68 0.70 0.77 0.97 1.18 1.21 1.26 1.25 1.08 0.83 0.69 0.71 0.71 0.78 0.84 0.92 0.94 0.76 0.58 0.46 0.44 0.48 0.53 0.65 0.82 0.88 0.82 0.75 0.72 0.71 0.69
0.56 0.55 0.56 0.55 0.56 0.56 0.53 0.51 0.52 0.60 0.59 0.61 0.66 0.71 0.77 0.83 0.97 1.17 1.26 1.28 1.21 1.03 0.80 0.63 0.57 0.55 0.60 0.72 0.80 0.76 0.62 0.48 0.37 0.33 0.37 0.45 0.60 0.77 0.78 0.70 0.66 0.68 0.68 0.70
0.52 0.51 0.50 0.49 0.51 0.50 0.47 0.45 0.46 0.54 0.63 0.65 0.68 0.77 0.83 0.86 0.96 1.15 1.37 1.37 1.08 0.83 0.68 0.63 0.55 0.50 0.54 0.69 0.72 0.65 0.56 0.47 0.36 0.31 0.34 0.48 0.66 0.77 0.70 0.63 0.62 0.62 0.60 0.64
0.53 0.52 0.50 0.48 0.49 0.49 0.49 0.49 0.50 0.56 0.66 0.67 0.65 0.69 0.80 0.91 0.95 0.99 1.08 1.24 1.09 0.87 0.63 0.55 0.52 0.54 0.59 0.69 0.66 0.57 0.54 0.50 0.43 0.38 0.41 0.54 0.66 0.71 0.65 0.62 0.64 0.61 0.59 0.62
0.57 0.54 0.51 0.47 0.47 0.47 0.46 0.49 0.52 0.63 0.77 0.76 0.72 0.69 0.75 0.86 0.95 1.09 1.06 0.95 0.93 0.85 0.63 0.51 0.50 0.56 0.62 0.65 0.63 0.54 0.55 0.51 0.45 0.43 0.46 0.53 0.59 0.62 0.64 0.66 0.67 0.63 0.61 0.60
0.56 0.51 0.51 0.48 0.46 0.50 0.54 0.55 0.56 0.62 0.72 0.69 0.61 0.57 0.66 0.80 0.82 0.80 0.88 0.94 0.90 0.84 0.66 0.55 0.47 0.48 0.55 0.55 0.58 0.60 0.63 0.56 0.47 0.42 0.43 0.49 0.55 0.59 0.66 0.70 0.69 0.65 0.63 0.59
0.53 0.52 0.51 0.53 0.57 0.61 0.62 0.65 0.71 0.73 0.79 0.70 0.58 0.49 0.52 0.67 0.80 0.73 0.72 0.76 0.80 0.76 0.64 0.58 0.53 0.56 0.57 0.61 0.64 0.65 0.61 0.50 0.43 0.40 0.43 0.51 0.55 0.59 0.65 0.66 0.63 0.64 0.65 0.65
0.60 0.56 0.55 0.56 0.58 0.61 0.65 0.77 0.89 0.91 0.96 0.89 0.69 0.50 0.46 0.51 0.60 0.65 0.70 0.73 0.76 0.78 0.65 0.57 0.54 0.58 0.61 0.66 0.65 0.59 0.52 0.47 0.44 0.45 0.48 0.53 0.55 0.58 0.62 0.63 0.59 0.61 0.64 0.64
0.57 0.54 0.55 0.57 0.60 0.59 0.59 0.66 0.78 0.91 1.06 1.05 0.79 0.51 0.45 0.49 0.56 0.62 0.66 0.72 0.77 0.79 0.71 0.59 0.54 0.56 0.59 0.61 0.60 0.53 0.44 0.40 0.42 0.44 0.45 0.45 0.49 0.57 0.63 0.65 0.59 0.59 0.61 0.60